Location: Newark
(42.8481°N, 0.4872°E)
Time: 11:12:39
(UTC+00:00)

Explorer 7 - Pass Details

Date: 29 October 2020
Orbit: 484 x 678 km, 50.3° (Epoch: 03 December)

Event Time Altitude Azimuth Distance (km) Brightness Sun altitude
Rises 18:55:06 0° 299° (WNW) 2,621 11.3 -22.7°
Reaches altitude 10° 18:57:15 10° 298° (WNW) 1,757 10.3 -23.1°
Enters shadow 19:01:02 75° 248° (WSW) 564 6.8 -23.8°
